Total_Precipitation_Accumulation
3.11 3.12 3.10 3.12 3.02 3.15 3.29 3.35 3.24 3.14 3.04 2.88 2.67 2.65 2.84 2.96 3.08 3.10 3.23 3.29 3.06 3.23 3.77 4.18 4.27 4.33 4.30 4.21 4.10 4.03 3.90 3.94 3.81 3.44 2.95 2.63 2.48 2.31 2.25 2.23 2.28 2.28 2.25
3.51 3.52 3.60 3.57 3.32 3.33 3.47 3.60 3.49 3.38 3.13 2.99 2.81 2.78 2.85 2.83 2.93 3.14 3.21 3.28 3.16 3.10 3.51 4.07 4.48 4.71 4.72 4.72 4.51 4.22 3.99 3.84 3.81 3.69 3.43 3.02 2.78 2.59 2.46 2.30 2.25 2.21 2.13
3.87 3.92 4.11 4.09 3.78 3.73 3.83 3.91 3.90 3.76 3.35 3.07 3.02 3.08 3.07 3.07 2.92 2.92 3.15 3.25 3.14 3.21 3.44 3.61 3.95 4.29 4.53 4.64 4.70 4.50 4.25 3.94 3.76 3.72 3.71 3.47 3.17 2.90 2.69 2.51 2.41 2.31 2.16
3.93 4.15 4.13 3.96 3.94 4.06 4.29 4.45 4.34 4.25 4.03 3.79 3.62 3.33 3.10 3.02 2.90 3.02 3.02 3.06 3.37 3.30 3.32 3.19 3.39 3.76 4.08 4.43 4.74 4.82 4.62 4.29 3.94 3.75 3.73 3.59 3.31 2.98 2.73 2.57 2.51 2.47 2.33
4.02 4.33 4.43 4.41 4.33 4.39 4.50 4.29 4.44 4.37 4.53 4.38 3.86 3.58 3.29 3.10 3.03 3.00 3.05 3.03 3.18 3.32 3.27 3.07 3.15 3.44 3.74 4.14 4.41 4.76 4.92 4.70 4.35 4.02 3.90 3.78 3.50 3.19 2.89 2.71 2.58 2.52 2.43
4.35 4.60 4.60 4.64 4.71 4.83 4.74 4.68 4.73 4.53 4.43 4.39 3.94 3.72 3.45 3.13 3.08 2.98 2.82 2.88 2.95 2.82 2.90 2.95 3.06 2.99 3.30 3.68 4.00 4.40 4.93 5.10 4.94 4.57 4.33 4.21 3.87 3.43 3.05 2.87 2.74 2.65 2.56
4.93 5.04 5.08 5.07 4.91 4.86 4.79 4.69 4.69 4.62 4.32 4.15 4.21 3.84 3.30 2.85 2.61 2.51 2.51 2.61 2.59 2.52 2.64 2.88 3.07 2.99 2.89 3.10 3.49 4.04 4.78 5.20 5.24 5.05 4.74 4.53 4.12 3.62 3.28 3.07 2.88 2.70 2.55
5.68 5.52 5.55 5.22 4.92 4.83 4.72 4.62 4.54 4.40 4.02 3.92 4.01 4.05 3.49 3.00 2.42 2.09 2.17 2.19 2.26 2.41 2.47 2.40 2.60 2.71 2.63 2.74 2.71 3.14 3.66 4.27 4.72 4.97 4.92 4.63 4.27 3.85 3.51 3.28 3.16 3.07 2.89
5.77 5.56 5.31 5.14 4.95 4.78 4.61 4.59 4.50 4.39 4.08 3.89 3.86 4.11 3.87 3.32 2.71 2.35 2.10 2.10 2.21 2.33 2.30 2.24 2.25 2.31 2.38 2.52 2.54 2.69 2.93 3.30 3.91 4.37 4.60 4.46 4.16 3.83 3.61 3.51 3.46 3.50 3.45
5.40 5.04 4.84 4.89 4.77 4.56 4.36 4.04 3.93 3.97 3.96 3.77 3.69 3.55 3.47 3.32 3.11 2.76 2.42 2.36 2.38 2.37 2.26 2.22 2.27 2.38 2.45 2.59 2.60 2.48 2.50 2.61 3.02 3.55 4.08 4.15 3.97 3.73 3.62 3.71 3.76 3.88 3.90
4.76 4.52 4.44 4.54 4.43 4.19 4.00 3.73 3.56 3.39 3.38 3.49 3.52 3.42 3.27 3.13 2.89 2.76 2.58 2.44 2.40 2.31 2.20 2.17 2.23 2.34 2.42 2.42 2.38 2.27 2.29 2.31 2.52 2.81 3.27 3.72 3.87 3.87 3.82 3.88 3.92 3.93 3.99
4.18 3.86 3.67 3.59 3.52 3.36 3.25 3.22 3.19 3.13 3.14 3.22 3.26 3.20 3.10 2.99 2.89 2.87 2.72 2.47 2.41 2.40 2.29 2.15 2.05 2.05 2.11 2.23 2.20 2.32 2.19 2.19 2.28 2.41 2.53 2.83 3.18 3.47 3.67 3.80 3.78 3.86 3.98
3.51 3.17 2.98 2.87 2.86 2.81 2.74 2.79 2.86 2.89 2.87 2.94 2.91 2.89 2.83 2.66 2.65 2.81 2.92 2.73 2.55 2.39 2.34 2.23 2.07 2.09 1.99 2.10 2.31 2.35 2.18 2.07 2.13 2.17 2.13 2.18 2.46 2.81 2.96 3.17 3.37 3.50 3.70
2.82 2.72 2.64 2.48 2.44 2.47 2.46 2.63 2.61 2.53 2.56 2.59 2.52 2.60 2.59 2.50 2.53 2.64 2.77 2.99 2.97 2.67 2.44 2.30 2.14 2.11 2.12 2.13 2.29 2.32 2.04 1.89 1.85 1.95 1.99 1.97 2.03 2.21 2.36 2.44 2.61 2.77 2.98
2.33 2.31 2.28 2.21 2.11 2.06 2.06 2.11 2.11 2.14 2.25 2.20 2.22 2.23 2.23 2.29 2.39 2.44 2.54 2.84 3.13 3.04 2.72 2.44 2.35 2.24 2.17 2.22 2.42 2.14 1.98 1.93 1.76 1.70 1.72 1.69 1.73 1.85 1.99 2.00 2.01 2.10 2.22
2.03 2.03 1.94 1.88 1.89 1.90 1.84 1.78 1.76 1.82 1.90 1.95 2.01 2.00 1.97 2.00 2.14 2.17 2.25 2.45 2.75 2.99 2.77 2.27 2.18 2.13 2.16 2.04 2.32 2.07 2.01 2.00 1.69 1.51 1.45 1.46 1.50 1.57 1.65 1.69 1.73 1.77 1.85
1.86 1.80 1.78 1.77 1.66 1.63 1.68 1.71 1.68 1.71 1.84 1.85 1.81 1.83 1.84 1.92 2.04 2.04 2.09 2.21 2.39 2.61 2.74 2.44 2.25 2.18 2.18 2.22 2.25 2.07 1.91 1.78 1.62 1.51 1.32 1.29 1.32 1.41 1.42 1.44 1.53 1.60 1.63
1.77 1.75 1.73 1.69 1.51 1.44 1.59 1.66 1.62 1.59 1.72 1.73 1.70 1.77 1.77 1.82 1.90 1.95 2.06 2.17 2.32 2.50 2.60 2.64 2.47 2.30 2.21 2.21 2.26 2.20 1.89 1.67 1.59 1.62 1.39 1.27 1.20 1.19 1.28 1.28 1.31 1.42 1.52
1.66 1.64 1.53 1.52 1.46 1.40 1.46 1.48 1.48 1.45 1.49 1.56 1.59 1.67 1.72 1.82 1.82 1.86 1.93 1.99 2.12 2.23 2.43 2.52 2.41 2.30 2.22 2.12 2.29 2.14 1.99 2.09 1.71 1.57 1.42 1.30 1.21 1.18 1.39 1.43 1.22 1.22 1.31
1.56 1.53 1.45 1.40 1.39 1.35 1.23 1.19 1.22 1.30 1.39 1.37 1.35 1.47 1.55 1.63 1.67 1.78 1.77 1.84 1.94 2.14 2.33 2.41 2.27 2.12 2.08 2.12 2.25 2.24 2.15 2.07 1.90 1.53 1.48 1.38 1.28 1.28 1.59 2.09 1.59 1.28 1.25
1.30 1.39 1.32 1.26 1.28 1.19 1.04 1.07 1.13 1.13 1.24 1.27 1.25 1.29 1.32 1.38 1.40 1.45 1.44 1.62 1.83 2.02 2.14 2.24 2.18 2.11 2.05 2.19 2.16 2.09 2.08 2.04 1.89 1.67 1.63 1.48 1.58 1.84 2.33 2.92 2.42 1.79 1.56
1.37 1.34 1.32 1.27 1.18 1.00 1.00 0.97 0.99 1.05 1.14 1.25 1.32 1.29 1.19 1.16 1.13 1.07 1.13 1.27 1.51 1.78 2.04 2.17 2.12 2.10 2.07 2.12 2.21 2.18 2.16 2.22 2.16 1.79 1.71 1.63 1.81 2.59 3.22 3.47 2.99 2.14 1.82
1.53 1.42 1.28 1.24 1.17 1.06 0.98 0.82 0.79 0.88 1.10 1.24 1.33 1.32 1.09 0.99 1.10 1.08 1.12 1.13 1.24 1.40 1.68 1.99 2.10 2.02 2.04 2.14 2.33 2.39 2.33 2.32 2.25 1.96 1.98 1.94 2.08 2.87 3.06 3.16 3.01 2.21 1.88
1.50 1.42 1.28 1.23 1.17 0.98 0.87 0.75 0.75 0.81 0.99 1.02 1.05 1.15 1.20 1.19 1.10 1.14 1.16 1.25 1.31 1.41 1.49 1.63 1.88 1.88 1.86 2.04 2.25 2.31 2.30 2.24 2.18 2.00 2.01 2.14 2.26 2.75 2.67 2.72 2.74 2.21 1.89
1.45 1.32 1.22 1.18 1.12 0.98 0.89 0.82 0.84 0.87 0.96 0.91 0.86 0.91 0.97 1.02 1.00 1.06 1.17 1.38 1.44 1.54 1.50 1.67 1.70 1.64 1.68 1.75 1.78 1.92 2.23 2.44 2.35 2.03 1.86 1.99 2.16 2.46 2.52 2.52 2.35 2.14 1.94
1.39 1.20 1.12 1.13 1.08 1.02 0.90 0.75 0.73 0.76 0.90 0.92 0.95 0.99 0.91 0.79 0.84 0.94 1.16 1.44 1.62 1.66 1.69 1.81 1.79 1.76 1.66 1.64 1.60 1.70 2.10 2.42 2.44 2.20 1.84 1.85 1.98 2.20 2.46 2.38 2.14 1.97 1.98